Regional Weather Roundup
Issued by NWS

Home | Current Version | Previous Version | Graphics & Text | Print | Product List | Glossary On
Versions: 1 2 3 4 5 6 7 8 9 10 11 12 13 14 15 16 17 18 19 20 21 22 23 24 25 26 27 28 29 30 31 32 33 34 35 36 37 38 39 40 41 42 43 44 45 46 47 48 49 50
000
ASUS43 KDTX 261601
RWRMI
MICHIGAN HOURLY REGIONAL WEATHER ROUNDUP
NATIONAL WEATHER SERVICE DETROIT/PONTIAC MI
1100 AM EST MON JAN 26 2015

NOTE: "FAIR" INDICATES FEW OR NO CLOUDS BELOW 12,000 FEET WITH NO
SIGNIFICANT WEATHER AND/OR OBSTRUCTION TO VISIBILITY.

MIZ047>049-052>055-059>063-066>070-074>076-081>083-261700-
SOUTHEAST LOWER MICHIGAN

CITY           SKY/WX    TMP DP  RH WIND       PRES   REMARKS
ADRIAN         SUNNY     17   8  67 NE8       29.94F WCI   7
ALMA           SUNNY     16  12  85 E7        29.98S WCI   6
ANN ARBOR      SUNNY     19   8  62 VRB7      29.94S WCI  10
BAD AXE        FLURRIES  16  15  95 E5        29.98S WCI   9
CARO           SUNNY     19  10  68 E5        29.98R WCI  12
DETROIT CITY   SUNNY     20   8  60 NE8       29.96S WCI  10
DETROIT        MOSUNNY   19   9  65 NE10      29.96S WCI   7
FLINT          SUNNY     19  10  68 E9        29.97S WCI   8
GROSSE ILE     SUNNY     18   9  68 N8        29.94S WCI   7
HILLSDALE      SUNNY     17   9  72 CALM      29.90S
HOWELL         SUNNY     15  10  80 NE7       29.94S WCI   6

CITY           SKY/WX    TMP DP  RH WIND       PRES   REMARKS
JACKSON        FAIR      17   8  67 E7        29.93S WCI   8
LAMBERTVILLE   SUNNY     19  10  68 NE5       29.95S WCI  13
LANSING        SUNNY     17  10  74 E7        29.96S WCI   8
LAPEER         FAIR      17  10  74 E6        29.96S WCI   9
MASON          SUNNY     15   8  72 E5        29.95R WCI   8
MT. CLEMENS    MOSUNNY   19   9  64 NE8       29.94R WCI   9
PONTIAC        MOSUNNY   17  10  74 E8        29.93S WCI   7
PORT HOPE        N/A     19  13  77 E13       29.99R WCI   6
PORT HURON     SUNNY     19  12  73 N7        29.97R WCI  10
TRI CITIES     SUNNY     17  10  74 VRB3      30.00R
TROY           SUNNY     21   9  58 NE9       29.97S WCI  11
SAGINAW HB     SUNNY     19  12  73 E6        29.99R WCI  11
$$
MIZ043>046-050>051-056>058-064>065-071>073-077>080-261700-
SOUTHWEST LOWER MICHIGAN

CITY           SKY/WX    TMP DP  RH WIND       PRES   REMARKS
BATTLE CREEK   FAIR      17   7  64 E5        29.95R WCI  10
BENTON HARBOR  MOSUNNY   16  11  80 E7        29.97R WCI   6
BIG RAPIDS     SUNNY     10   7  87 CALM      29.95S
COLDWATER      MOSUNNY   16   8  72 CALM      29.93S
FREMONT        FAIR      13   6  76 SE5       29.97R WCI   5
HOLLAND        MOSUNNY   17  10  74 E8        29.98S WCI   7
GRAND RAPIDS   PTSUNNY   16   9  74 E9        29.97R WCI   4
IONIA          FAIR      17  11  79 E7        29.96R WCI   7
KALAMAZOO      MOSUNNY   17   9  70 CALM      29.95S
LUDINGTON      MOSUNNY   16   9  75 SE3       29.97S
MARSHALL       SUNNY     16   7  67 NE3       29.93S
MOUNT PLEASANT SUNNY     17  11  77 E3        29.97S
MUSKEGON       PTSUNNY   15   8  73 SE7       29.98S WCI   5
SOUTH HAVEN    MOSUNNY   18  11  73 SE6       29.97S WCI  10
$$
MIZ016>042-261700-
NORTHERN LOWER MICHIGAN

CITY           SKY/WX    TMP DP  RH WIND       PRES   REMARKS
ALPENA         CLOUDY     9   6  88 CALM      30.02R
BEAVER ISLAND  PTSUNNY   17  10  77 SE7       29.98R WCI   7
BELLAIRE       SUNNY      6   2  84 CALM      29.99S
CADILLAC       SUNNY      8   3  82 CALM      29.91S
CHARLEVOIX     MOSUNNY   11   7  82 E6        30.00F WCI   2
FRANKFORT      MOSUNNY   17  11  78 SE7       29.96F WCI   7
GAYLORD        SUNNY      8   6  92 CALM      29.93S
GRAYLING       SUNNY      8   1  71 CALM      29.95S
HARBOR SPRINGS SUNNY      8   3  79 E8        29.98S WCI  -5
HOUGHTON LAKE  SUNNY     12   7  80 VRB3      29.94F
MANISTEE       MOSUNNY   10   7  85 E3        29.97S
OSCODA         PTSUNNY   22  12  66 E9        30.00R WCI  12
PELLSTON       MOSUNNY    3  -2  79 E3        30.00S
ROGERS CITY    MOSUNNY   19  13  80 SE6       30.02R WCI  10
TRAVERSE CITY  PTSUNNY   13   8  81 CALM      29.97F
$$
MIZ007>008-015-261700-
EASTERN UPPER MICHIGAN

CITY           SKY/WX    TMP DP  RH WIND       PRES   REMARKS
KINROSS        CLOUDY     9   3  78 E7        30.00R WCI  -3
MACKINAC ISLAN PTSUNNY   17  13  83 E3        29.99R
NEWBERRY       PTSUNNY    8   4  84 SE6       29.95F WCI  -3
S. S. MARIE    CLOUDY     6  -1  73 E8        30.01S WCI  -7
MUNISING         N/A     17   9  70 S8        29.90F WCI   7
$$
MIZ004>006-011>014-085-261700-
CENTRAL UPPER MICHIGAN

CITY           SKY/WX    TMP DP  RH WIND       PRES   REMARKS
MANISTIQUE     CLOUDY    21  13  72 SE10      29.93S WCI  10
ESCANABA       CLOUDY    12   9  85 CALM      29.91S
MENOMINEE      CLOUDY    18  14  86 SE3       29.90S
SAWYER-GWINN   CLOUDY    14  10  85 S12       29.82F WCI   0
$$
MIZ001>003-009>011-084-261700-
WESTERN UPPER MICHIGAN

CITY           SKY/WX    TMP DP  RH WIND       PRES   REMARKS
IRON MOUNTAIN  LGT SNOW  11   7  84 SE7       29.83R FOG     WCI   0
HOUGHTON       LGT SNOW  15   9  76 S9        29.77R WCI   3
COPPER HARBOR    N/A     23  12  62 SW8G16    29.81S WCI  14
IRONWOOD       CLOUDY    18  16  93 S6        29.68R VSB 1   WCI   9
$$

ABBREVIATIONS USED IN REMARKS
   TC - TEMPERATURE IN CELSIUS
  WCI - WIND CHILL INDEX
   HX - HEAT INDEX
  VSB - VISIBILITY



USA.gov is the U.S. government's official web portal to all federal, state and local government web resources and services.